This is the latest recevied weather packets stored in our database for station/object WW6Q. If no packets are shown the sender has not sent any weather packets the latest 10 day(s).
| Time | Temp. | Humidity | Pressure | Rain* | Wind** | Luminosity | Snow |
|---|---|---|---|---|---|---|---|
| 1788101198 | 19.44° C | 96% | 1020.2 hPa | 0 mm | - | 26 W/m² | - |
| 1788100894 | 19.44° C | 96% | 1019.9 hPa | 0 mm | - | 36 W/m² | - |
| 1788100591 | 20° C | 96% | 1019.9 hPa | 0 mm | - | 37 W/m² | - |
| 1788100288 | 19.44° C | 96% | 1020 hPa | 0 mm | - | 37 W/m² | - |
| 1788099984 | 19.44° C | 95% | 1020.2 hPa | 0 mm | - | 36 W/m² | - |
| 1788099684 | 20° C | 96% | 1020 hPa | 0 mm | - | 40 W/m² | - |
| 1788099380 | 20° C | 96% | 1020.1 hPa | 0 mm | - | 52 W/m² | - |
| 1788099074 | 19.44° C | 96% | 1019.9 hPa | 1.78 mm | - | 52 W/m² | - |
| 1788098774 | 19.44° C | 95% | 1019.7 hPa | 1.78 mm | - | 47 W/m² | - |
| 1788098469 | 19.44° C | 95% | 1019.8 hPa | 0 mm | - | 38 W/m² | - |
| 1788098164 | 19.44° C | 95% | 1019.5 hPa | 0 mm | - | 31 W/m² | - |
| 1788097859 | 19.44° C | 94% | 1019.5 hPa | 0 mm | - | 17 W/m² | - |
| 1788097555 | 19.44° C | 95% | 1019.2 hPa | 0 mm | - | 14 W/m² | - |
| 1788097256 | 19.44° C | 95% | 1019 hPa | 0 mm | - | 16 W/m² | - |
| 1788096951 | 19.44° C | 95% | 1018.9 hPa | 0 mm | - | 17 W/m² | - |
| 1788096646 | 19.44° C | 95% | 1018.8 hPa | 0 mm | - | 17 W/m² | - |
| 1788096342 | 19.44° C | 94% | 1018.8 hPa | 0 mm | - | 22 W/m² | - |
| 1788096037 | 19.44° C | 94% | 1018.7 hPa | 0 mm | - | 27 W/m² | - |
| 1788095736 | 19.44° C | 94% | 1018.4 hPa | 0 mm | - | 23 W/m² | - |
| 1788095431 | 19.44° C | 95% | 1018.3 hPa | 0 mm | - | 21 W/m² | - |
| 1788095126 | 19.44° C | 95% | 1018.2 hPa | 0 mm | - | 20 W/m² | - |
| 1788094822 | 19.44° C | 95% | 1018.4 hPa | 0 mm | - | 28 W/m² | - |
| 1788094516 | 18.89° C | 95% | 1018.2 hPa | 0 mm | - | 22 W/m² | - |
| 1788094216 | 18.89° C | 94% | 1018.3 hPa | 0 mm | - | 23 W/m² | - |
| 1788093915 | 19.44° C | 93% | 1018.1 hPa | 0 mm | - | 17 W/m² | - |
* Rain latest hour (hover to see other rain measurements)
** Current wind speed in m/s (hover to see current wind gust speed)